Theta_e
351 346 335 341 344 344 345 340 341 337 337 334 335 334 335 336 338 339 338 339 341 340 335 335 335 336 336 335 336 337 340 338 336 331 330 330 331 333 342 343 341 338 331
350 347 342 344 342 340 343 342 341 342 340 340 339 339 338 342 340 341 339 342 338 335 332 333 333 335 336 336 337 337 338 339 339 334 332 333 334 333 339 347 337 330 328
349 347 345 344 343 342 342 339 341 340 339 339 339 339 338 339 340 342 340 336 333 336 334 334 333 332 334 336 337 335 338 338 336 343 348 349 344 340 338 337 335 332 332
349 350 348 342 343 341 338 336 338 338 339 339 334 333 336 340 334 339 340 339 334 335 335 335 338 340 338 335 338 340 336 336 338 347 348 348 347 341 342 337 337 336 336
348 347 343 336 343 334 331 343 343 339 338 340 337 326 328 331 333 341 337 337 337 337 337 340 341 340 340 341 338 340 341 337 342 345 346 348 348 334 341 339 339 338 343
349 350 337 331 343 343 343 336 331 335 337 327 326 327 330 332 337 335 334 334 335 339 339 338 337 337 339 339 341 339 340 339 343 346 343 343 349 330 334 336 336 336 333
345 348 345 335 344 343 340 330 332 339 331 331 332 333 333 332 331 332 335 336 334 333 333 333 335 338 339 338 338 341 338 337 347 346 346 347 333 332 333 334 337 337 337
345 345 338 334 336 334 333 334 333 332 331 330 332 334 334 332 332 334 335 338 340 341 338 335 338 339 338 337 338 340 337 341 343 339 343 343 331 327 329 337 339 328 329
342 345 347 346 336 329 333 331 330 329 336 341 342 342 342 341 342 342 341 342 343 341 341 341 339 338 337 338 339 341 340 339 344 344 344 342 335 335 335 336 332 332 330
341 345 346 346 344 344 333 328 333 342 344 345 343 341 343 345 342 340 346 342 342 342 341 342 340 338 337 338 337 335 338 343 345 344 345 340 340 340 340 341 341 340 340
342 345 345 344 345 345 343 343 341 342 345 345 343 344 349 349 349 349 343 343 341 341 342 342 342 340 336 334 336 342 344 345 345 345 343 340 340 340 340 339 338 337 338
341 343 342 343 345 349 350 349 351 352 350 352 349 353 351 349 348 348 345 344 343 342 342 342 344 348 348 343 345 344 345 344 343 343 339 339 339 339 338 333 328 326 325
341 341 341 344 347 349 348 349 350 349 351 350 353 353 352 352 354 351 352 352 348 351 352 345 350 349 350 348 347 345 345 343 344 345 340 339 339 339 334 330 326 323 322
340 341 343 343 347 350 347 348 350 349 351 350 350 347 354 348 351 350 350 348 351 349 348 350 349 351 348 350 349 348 347 345 346 342 339 339 338 335 332 328 325 323 322
339 340 343 346 352 350 350 350 348 348 347 348 349 351 350 349 352 351 347 347 350 351 347 349 349 350 349 348 347 349 346 347 347 346 336 336 335 334 333 327 325 323 320
338 340 347 351 351 352 352 351 349 350 350 348 350 353 354 351 351 350 351 345 346 352 351 353 351 352 351 349 348 347 347 346 346 347 345 341 340 337 334 329 325 323 322
338 341 348 350 352 352 352 350 352 350 348 349 351 354 355 352 352 349 346 347 347 349 346 349 349 347 347 348 348 346 343 345 344 342 349 347 344 341 338 334 327 325 324
337 343 349 350 352 351 352 351 351 350 349 351 351 353 355 351 354 355 348 349 347 347 347 347 346 343 346 347 347 348 344 345 345 344 345 348 348 346 343 340 332 328 328
337 346 350 351 351 351 352 353 352 352 350 350 350 350 354 353 355 352 352 351 347 342 343 342 347 345 348 346 347 347 347 347 350 348 346 345 343 344 344 342 337 336 336
340 347 350 351 351 353 352 353 350 352 350 350 350 354 358 353 352 357 352 353 350 346 341 345 349 348 347 348 345 347 347 347 346 346 347 348 346 342 340 341 340 341 337
341 347 350 352 354 352 352 350 350 349 350 350 353 355 349 352 353 354 353 356 354 347 339 347 340 345 347 349 346 346 347 347 346 343 343 342 346 343 341 339 337 340 339
342 345 350 352 355 353 351 350 350 349 349 349 352 352 351 353 357 355 357 354 356 356 354 330 343 338 337 345 344 343 344 346 341 336 337 337 339 336 337 340 338 337 336
342 342 346 350 354 354 350 352 355 354 354 353 353 352 352 354 356 356 355 356 353 354 353 342 327 339 335 330 327 341 339 334 332 340 335 332 320 331 332 332 334 336 338
343 342 346 350 353 354 353 350 352 352 350 349 350 352 351 353 356 355 357 357 351 355 354 347 333 326 336 334 336 329 321 320 334 333 337 334 331 331 330 330 331 334 337
345 342 347 351 353 352 352 353 351 351 349 350 350 352 354 348 355 355 357 357 358 358 345 339 340 325 327 333 333 333 329 331 330 330 329 329 329 332 331 331 331 331 334
348 344 346 351 352 352 351 351 353 351 351 350 351 353 351 352 354 352 357 358 357 359 350 346 340 341 330 318 326 327 330 329 330 329 328 328 329 330 332 331 331 330 330
Wind_Speed
9 9 11 9 9 8 8 8 10 10 9 9 9 9 9 9 8 10 9 9 11 12 12 12 11 10 9 8 7 7 9 10 12 13 11 12 14 13 18 19 13 10 12
12 10 12 10 8 8 10 9 9 9 10 10 11 10 11 10 10 12 11 12 12 14 14 14 14 13 13 12 9 8 8 8 9 12 11 9 13 12 13 17 10 11 11
14 10 10 10 8 9 9 9 10 10 11 11 11 11 10 11 12 12 12 12 12 12 13 14 13 13 11 10 11 11 10 10 12 13 13 13 8 11 11 9 9 11 11
14 12 8 10 9 8 7 9 10 9 10 10 9 9 10 10 10 12 11 11 11 11 11 12 11 11 10 9 9 10 10 13 16 12 8 9 6 6 7 8 8 9 9
10 9 9 10 9 8 9 9 11 9 9 10 10 10 9 9 10 11 12 11 11 10 9 9 9 8 7 6 7 8 9 12 16 11 3 11 9 4 5 7 6 6 7
13 11 10 10 10 10 10 9 10 10 9 9 9 10 10 10 10 10 9 9 9 9 8 8 8 7 6 6 4 7 7 10 9 10 9 4 6 4 4 4 3 3 2
13 9 11 11 11 9 9 10 11 9 9 9 10 10 9 8 8 8 8 8 8 8 8 9 9 5 3 2 5 8 7 9 7 5 7 7 4 6 5 5 5 5 5
12 11 10 11 10 9 10 10 10 9 9 9 9 9 8 8 8 8 8 8 8 8 9 8 8 6 3 3 10 12 12 15 9 10 6 3 7 7 6 5 4 5 4
12 12 9 8 9 10 11 10 9 9 9 9 9 9 10 9 8 9 9 9 10 11 9 10 13 12 12 15 14 11 10 7 7 5 6 3 7 7 7 7 5 5 5
14 12 12 9 9 8 8 9 9 7 6 5 7 9 11 12 10 11 11 10 12 13 13 14 12 14 14 13 13 13 14 12 7 9 5 3 6 6 6 6 5 5 5
13 14 12 10 10 10 8 7 8 10 11 9 9 10 12 10 6 11 9 13 16 16 14 14 15 18 19 18 17 18 17 11 10 8 2 5 5 6 7 7 7 7 6
14 13 12 11 11 11 9 6 8 3 8 6 8 5 12 8 8 9 12 14 15 14 14 14 17 16 14 17 18 17 11 9 8 6 5 6 7 7 8 9 9 8 7
14 13 13 12 11 11 10 9 6 7 7 8 8 8 9 6 4 10 5 8 8 4 9 9 11 13 7 7 14 9 9 9 9 7 7 7 8 9 9 9 10 10 9
16 14 13 13 11 10 9 11 6 9 11 10 7 11 7 8 9 7 8 7 6 8 2 9 12 6 9 8 9 9 10 9 11 8 9 9 8 8 8 8 11 12 10
16 15 14 13 9 10 8 9 12 10 10 9 8 6 15 7 10 8 9 10 6 3 5 7 6 9 10 8 10 2 9 9 8 7 8 8 7 7 6 7 11 12 10
17 16 14 13 13 11 8 11 10 8 11 10 8 7 8 6 8 14 8 7 3 8 5 4 4 5 9 7 4 5 5 6 6 9 5 7 5 4 3 7 10 12 13
18 17 16 15 13 10 9 12 8 10 9 8 5 7 6 7 7 11 8 7 6 7 6 5 5 5 5 6 8 6 4 5 6 3 8 4 7 1 7 7 8 9 10
18 18 17 14 12 10 9 12 9 11 9 8 8 7 5 8 6 9 6 7 7 6 5 4 4 5 7 7 7 6 5 4 3 2 5 5 3 1 2 7 10 10 10
20 20 17 15 15 11 11 10 11 11 10 8 8 6 6 7 6 8 7 6 8 7 7 6 6 7 9 7 7 6 5 3 1 3 4 1 0 1 2 10 12 10 10
21 21 18 17 15 14 12 12 11 8 10 9 8 6 6 4 4 9 5 7 6 5 5 6 10 8 7 5 6 5 4 3 2 2 1 2 1 2 3 8 12 4 10
22 23 21 18 17 17 14 12 11 11 11 10 6 6 6 5 5 9 4 5 6 6 6 5 7 9 6 6 6 4 3 3 2 2 2 1 4 4 4 5 3 3 10
24 25 24 20 18 18 15 14 11 11 10 9 7 7 5 6 7 8 6 3 8 5 6 7 11 5 4 4 2 1 5 4 1 2 2 2 4 3 5 6 5 7 4
26 27 26 24 20 19 16 14 11 12 10 10 7 5 6 6 7 6 6 6 9 7 4 6 8 10 3 2 4 2 2 6 3 0 4 2 7 2 4 4 7 5 5
27 27 26 25 23 21 20 17 18 14 12 11 9 9 5 6 5 5 5 5 7 4 7 5 5 7 9 3 4 5 3 2 3 3 1 3 6 6 7 2 4 5 5
30 30 28 27 25 23 24 20 19 17 13 12 11 8 8 6 6 4 3 4 5 4 4 4 5 6 4 6 3 3 5 3 6 3 2 5 6 6 5 3 3 3 5
31 31 31 30 29 26 24 26 21 20 15 13 13 9 7 5 4 5 3 4 3 4 5 5 4 4 3 3 2 3 3 2 3 3 5 6 5 5 5 3 3 5 6
Wind_Direction
143 149 124 116 103 94 89 94 101 93 94 92 88 86 90 94 99 98 90 91 95 89 84 82 83 88 101 110 114 103 101 103 101 99 103 102 98 96 99 88 80 92 88
141 138 128 116 102 106 104 96 105 99 95 92 92 93 95 97 93 92 95 94 89 87 83 82 83 87 90 95 102 115 124 109 97 98 97 96 95 93 94 110 130 91 87
139 141 126 125 113 110 107 101 100 95 95 95 93 92 95 96 96 96 93 91 93 93 87 90 86 86 87 87 93 99 110 113 103 101 94 104 99 99 105 109 102 96 96
131 133 135 129 125 114 107 109 98 98 101 97 94 92 97 100 100 100 96 94 94 90 86 89 87 86 90 94 100 102 105 113 112 95 75 125 110 97 90 75 72 74 79
139 142 158 132 120 105 115 105 97 102 104 95 90 95 104 104 102 95 92 89 85 81 80 77 77 80 83 98 112 118 118 118 113 87 96 75 106 82 93 86 60 72 97
127 140 140 138 129 116 113 122 118 113 99 103 102 97 99 102 99 90 85 82 79 70 58 59 60 58 75 94 119 135 136 132 109 99 89 86 69 45 94 97 110 71 86
147 142 136 138 132 129 126 116 119 109 110 105 96 94 91 93 93 91 83 76 71 67 56 45 31 6 309 231 166 154 138 138 124 120 76 75 76 87 72 70 73 63 62
139 136 138 136 142 141 128 120 119 117 112 102 93 87 84 79 77 76 72 72 77 80 81 34 18 52 94 109 157 163 135 122 115 117 125 98 65 78 78 71 67 41 53
140 133 131 137 137 133 124 124 121 117 107 95 87 78 75 76 78 77 80 82 83 92 95 53 53 64 81 98 121 123 151 149 129 129 85 65 75 76 81 79 71 53 51
140 137 140 148 133 126 117 124 116 104 101 90 85 77 78 63 75 75 64 82 96 93 87 80 71 74 89 105 109 115 111 100 135 115 147 119 82 77 74 73 66 50 35
147 147 151 149 133 142 133 111 87 80 72 78 89 93 76 80 55 58 87 93 94 94 88 86 82 79 88 97 95 99 93 121 115 112 149 93 86 79 77 78 64 50 36
153 154 150 144 150 145 129 104 97 87 78 108 121 115 86 101 114 98 86 84 92 90 81 78 83 74 89 59 69 76 91 108 106 119 106 102 97 92 82 77 58 42 24
156 153 155 152 151 137 141 128 135 102 116 101 101 84 114 102 83 89 59 66 59 59 103 90 92 72 64 76 87 94 117 114 106 101 96 99 92 85 82 63 42 26 21
159 158 155 155 161 138 141 116 132 92 113 103 104 88 91 90 84 82 114 115 82 62 149 111 101 139 104 100 100 123 128 114 133 103 87 90 84 80 72 45 29 20 18
163 161 161 155 151 153 133 147 112 120 116 111 95 95 83 104 97 82 54 52 92 120 91 84 95 112 148 106 101 86 104 111 134 108 80 82 77 65 55 30 22 19 22
165 164 168 157 151 151 156 144 129 114 114 111 105 94 96 94 86 69 47 66 68 72 114 89 61 72 62 104 93 90 99 94 100 146 106 48 36 23 26 15 20 21 15
169 167 165 158 150 158 158 136 136 138 127 121 108 99 96 92 75 90 72 63 62 67 90 79 95 94 108 108 95 117 81 112 96 76 185 348 1 62 357 349 355 2 7
172 171 169 166 166 161 161 151 144 145 133 127 117 106 90 70 114 86 68 64 72 85 99 105 110 119 120 113 108 110 103 101 113 128 83 358 30 355 338 341 343 345 4
174 173 172 170 161 163 163 152 148 153 139 135 127 111 105 99 82 75 71 69 65 75 86 80 93 119 127 123 120 113 115 109 214 79 49 99 156 359 323 339 338 336 351
178 177 177 174 168 166 161 158 154 148 149 143 136 130 110 105 108 75 80 74 82 81 73 97 110 123 128 113 113 130 119 100 93 57 65 200 195 309 292 337 327 290 333
184 180 182 181 182 167 173 166 168 161 156 153 159 141 121 107 91 70 98 88 95 99 114 83 69 106 108 129 120 118 139 116 100 61 36 360 327 317 286 273 327 302 313
189 187 185 187 192 174 178 176 172 167 163 163 155 145 143 122 107 77 85 88 111 41 82 97 134 113 87 139 68 190 167 159 100 89 40 18 279 308 306 301 284 273 266
192 191 190 191 197 184 185 183 183 171 172 157 173 149 152 140 113 87 71 75 72 76 54 78 98 132 131 52 108 77 291 52 342 180 22 346 320 311 286 297 293 272 273
196 193 192 193 198 192 185 189 187 182 178 178 168 168 157 150 132 104 85 60 99 60 72 49 67 98 109 82 46 41 65 34 13 38 228 335 16 8 317 355 270 294 260
195 194 192 195 197 197 192 187 197 188 186 178 171 174 157 172 154 148 119 81 69 78 44 56 66 91 78 100 82 55 23 26 15 5 354 338 341 338 342 332 244 240 271
197 195 193 198 197 194 204 189 197 199 187 189 180 178 178 178 185 166 160 120 117 52 39 50 70 72 69 83 94 86 66 53 330 322 309 325 329 311 305 308 297 262 263